Time,TemperatureF,DewpointF,PressureIn,WindDirection,WindDirectionDegrees,WindSpeedMPH,WindSpeedGustMPH,Humidity,HourlyPrecipIn,Conditions,Clouds,dailyrainin,SoftwareType,DateUTC
2013-01-27 00:03:00,47.1,44.0,29.95,WNW,296,3.0,10.0,88,0.00,,,0.00,weatherlink.com 1.10,2013-01-27 08:03:00,
2013-01-27 00:18:00,46.8,43.0,29.95,NW,304,1.0,7.0,86,0.00,,,0.00,weatherlink.com 1.10,2013-01-27 08:18:00,
2013-01-27 00:33:00,46.7,43.0,29.95,West,279,3.0,13.0,86,0.00,,,0.00,weatherlink.com 1.10,2013-01-27 08:33:00,
2013-01-27 00:48:00,46.8,44.0,29.95,South,181,9.0,12.0,89,0.00,,,0.00,weatherlink.com 1.10,2013-01-27 08:48:00,
2013-01-27 01:03:00,46.4,44.0,29.95,West,269,4.0,13.0,91,0.00,,,0.00,weatherlink.com 1.10,2013-01-27 09:03:00,
2013-01-27 01:18:00,46.1,44.0,29.95,SSW,212,1.0,8.0,91,0.00,,,0.00,weatherlink.com 1.10,2013-01-27 09:18:00,
2013-01-27 01:33:00,45.9,44.0,29.95,West,278,1.0,8.0,92,0.00,,,0.00,weatherlink.com 1.10,2013-01-27 09:33:00,
2013-01-27 01:48:00,45.9,44.0,29.95,West,264,3.0,6.0,92,0.00,,,0.00,weatherlink.com 1.10,2013-01-27 09:48:00,
2013-01-27 02:03:00,45.9,44.0,29.95,West,270,1.0,6.0,92,0.00,,,0.00,weatherlink.com 1.10,2013-01-27 10:03:00,
2013-01-27 02:18:00,45.9,44.0,29.96,West,270,0.0,9.0,91,0.00,,,0.00,weatherlink.com 1.10,2013-01-27 10:18:00,
2013-01-27 02:33:00,45.9,43.0,29.96,NNW,328,1.0,13.0,90,0.00,,,0.00,weatherlink.com 1.10,2013-01-27 10:33:00,
2013-01-27 02:48:00,45.7,43.0,29.96,West,277,1.0,5.0,91,0.00,,,0.00,weatherlink.com 1.10,2013-01-27 10:48:00,
2013-01-27 03:03:00,45.6,43.0,29.96,West,274,1.0,8.0,90,0.00,,,0.00,weatherlink.com 1.10,2013-01-27 11:03:00,
2013-01-27 03:18:00,45.3,43.0,29.95,WSW,257,0.0,7.0,91,0.00,,,0.00,weatherlink.com 1.10,2013-01-27 11:18:00,
2013-01-27 03:33:00,45.1,43.0,29.95,West,274,1.0,4.0,91,0.00,,,0.00,weatherlink.com 1.10,2013-01-27 11:33:00,
2013-01-27 03:48:00,45.0,43.0,29.95,WNW,295,1.0,6.0,91,0.00,,,0.00,weatherlink.com 1.10,2013-01-27 11:48:00,
2013-01-27 04:03:00,41.0,39.0,29.94,WNW,295,5.0,16.0,91,0.00,,,0.00,weatherlink.com 1.10,2013-01-27 12:03:00,
2013-01-27 04:18:00,39.9,38.0,29.95,NW,311,6.0,16.0,92,0.00,,,0.00,weatherlink.com 1.10,2013-01-27 12:18:00,
2013-01-27 04:33:00,39.4,37.0,29.95,NW,309,16.0,25.0,92,0.00,,,0.00,weatherlink.com 1.10,2013-01-27 12:33:00,
2013-01-27 04:48:00,38.5,36.0,29.94,WNW,283,9.0,27.0,91,0.00,,,0.00,weatherlink.com 1.10,2013-01-27 12:48:00,
2013-01-27 05:03:00,38.2,36.0,29.94,WNW,294,12.0,25.0,91,0.00,,,0.00,weatherlink.com 1.10,2013-01-27 13:03:00,
2013-01-27 05:18:00,37.9,35.0,29.95,WNW,291,5.0,23.0,89,0.00,,,0.00,weatherlink.com 1.10,2013-01-27 13:18:00,
2013-01-27 05:33:00,37.9,35.0,29.95,SW,231,7.0,23.0,88,0.00,,,0.00,weatherlink.com 1.10,2013-01-27 13:33:00,
2013-01-27 05:48:00,38.1,34.0,29.95,NW,305,7.0,21.0,86,0.00,,,0.00,weatherlink.com 1.10,2013-01-27 13:48:00,
2013-01-27 06:03:00,38.1,35.0,29.95,WNW,283,7.0,14.0,87,0.00,,,0.00,weatherlink.com 1.10,2013-01-27 14:03:00,
2013-01-27 06:18:00,38.0,34.0,29.96,WNW,287,8.0,20.0,86,0.00,,,0.00,weatherlink.com 1.10,2013-01-27 14:18:00,
2013-01-27 06:34:00,37.7,34.0,29.97,WNW,291,11.0,21.0,86,0.00,,,0.00,weatherlink.com 1.10,2013-01-27 14:34:00,
2013-01-27 06:49:00,37.7,34.0,29.98,WNW,294,7.0,18.0,86,0.00,,,0.00,weatherlink.com 1.10,2013-01-27 14:49:00,
2013-01-27 07:04:00,36.9,33.0,29.98,WNW,294,10.0,26.0,87,0.00,,,0.00,weatherlink.com 1.10,2013-01-27 15:04:00,
2013-01-27 07:19:00,36.3,33.0,29.98,West,281,7.0,24.0,88,0.00,,,0.00,weatherlink.com 1.10,2013-01-27 15:19:00,
2013-01-27 07:34:00,36.5,32.0,29.98,WNW,285,5.0,21.0,85,0.00,,,0.00,weatherlink.com 1.10,2013-01-27 15:34:00,
2013-01-27 07:49:00,36.4,32.0,29.98,WNW,302,9.0,20.0,84,0.00,,,0.00,weatherlink.com 1.10,2013-01-27 15:49:00,
2013-01-27 08:04:00,36.4,32.0,29.98,West,273,7.0,20.0,84,0.00,,,0.00,weatherlink.com 1.10,2013-01-27 16:04:00,
2013-01-27 08:19:00,36.5,32.0,29.98,NW,323,16.0,22.0,83,0.00,,,0.00,weatherlink.com 1.10,2013-01-27 16:19:00,
2013-01-27 08:34:00,36.5,32.0,29.99,WSW,252,8.0,21.0,83,0.00,,,0.00,weatherlink.com 1.10,2013-01-27 16:34:00,
2013-01-27 08:49:00,36.7,31.0,29.99,WNW,302,14.0,27.0,81,0.00,,,0.00,weatherlink.com 1.10,2013-01-27 16:49:00,
2013-01-27 09:04:00,37.2,31.0,30.00,West,271,7.0,31.0,79,0.00,,,0.00,weatherlink.com 1.10,2013-01-27 17:04:00,
2013-01-27 09:19:00,37.3,31.0,30.01,WNW,300,24.0,26.0,79,0.00,,,0.00,weatherlink.com 1.10,2013-01-27 17:19:00,
2013-01-27 09:34:00,36.7,30.0,30.01,WNW,301,4.0,26.0,78,0.00,,,0.00,weatherlink.com 1.10,2013-01-27 17:34:00,
2013-01-27 09:49:00,36.5,30.0,30.02,NNW,328,15.0,34.0,78,0.00,,,0.00,weatherlink.com 1.10,2013-01-27 17:49:00,
2013-01-27 10:04:00,36.6,30.0,30.02,NNW,339,7.0,34.0,77,0.00,,,0.00,weatherlink.com 1.10,2013-01-27 18:04:00,
2013-01-27 10:19:00,37.2,30.0,30.02,NW,309,19.0,30.0,74,0.00,,,0.00,weatherlink.com 1.10,2013-01-27 18:19:00,
2013-01-27 10:34:00,37.8,30.0,30.02,WNW,293,15.0,31.0,72,0.00,,,0.00,weatherlink.com 1.10,2013-01-27 18:34:00,
2013-01-27 10:49:00,38.4,29.0,30.02,WNW,301,16.0,28.0,70,0.00,,,0.00,weatherlink.com 1.10,2013-01-27 18:49:00,
2013-01-27 11:04:00,39.1,29.0,30.01,WNW,298,24.0,27.0,67,0.00,,,0.00,weatherlink.com 1.10,2013-01-27 19:04:00,
2013-01-27 11:19:00,39.5,30.0,30.01,NNW,328,13.0,30.0,68,0.00,,,0.00,weatherlink.com 1.10,2013-01-27 19:19:00,
2013-01-27 11:34:00,39.4,30.0,30.00,NW,320,10.0,32.0,68,0.00,,,0.00,weatherlink.com 1.10,2013-01-27 19:34:00,
2013-01-27 11:49:00,39.8,30.0,30.00,WNW,285,14.0,29.0,68,0.00,,,0.00,weatherlink.com 1.10,2013-01-27 19:49:00,
2013-01-27 12:04:00,39.6,28.0,30.00,WNW,296,15.0,27.0,64,0.00,,,0.00,weatherlink.com 1.10,2013-01-27 20:04:00,
2013-01-27 12:19:00,39.7,29.0,30.00,WNW,294,12.0,21.0,65,0.00,,,0.00,weatherlink.com 1.10,2013-01-27 20:19:00,
2013-01-27 12:34:00,39.5,29.0,29.99,WNW,290,7.0,25.0,66,0.00,,,0.00,weatherlink.com 1.10,2013-01-27 20:34:00,
2013-01-27 12:49:00,39.6,28.0,29.99,West,271,15.0,29.0,64,0.00,,,0.00,weatherlink.com 1.10,2013-01-27 20:49:00,
2013-01-27 13:04:00,39.9,28.0,29.99,NNW,342,13.0,29.0,63,0.00,,,0.00,weatherlink.com 1.10,2013-01-27 21:04:00,
2013-01-27 13:19:00,39.6,29.0,29.99,WNW,283,11.0,34.0,66,0.00,,,0.00,weatherlink.com 1.10,2013-01-27 21:19:00,
2013-01-27 13:34:00,39.1,28.0,29.99,WNW,295,15.0,28.0,65,0.00,,,0.00,weatherlink.com 1.10,2013-01-27 21:34:00,
2013-01-27 13:49:00,38.5,29.0,29.99,WNW,295,16.0,31.0,68,0.00,,,0.00,weatherlink.com 1.10,2013-01-27 21:49:00,
2013-01-27 14:04:00,38.7,29.0,29.99,WNW,288,5.0,28.0,68,0.00,,,0.00,weatherlink.com 1.10,2013-01-27 22:04:00,
2013-01-27 14:19:00,38.5,28.0,29.99,WNW,301,18.0,31.0,67,0.00,,,0.00,weatherlink.com 1.10,2013-01-27 22:19:00,
2013-01-27 14:34:00,38.4,29.0,29.99,WNW,294,9.0,30.0,69,0.00,,,0.00,weatherlink.com 1.10,2013-01-27 22:34:00,
2013-01-27 14:49:00,38.3,29.0,29.98,NW,308,12.0,25.0,70,0.00,,,0.00,weatherlink.com 1.10,2013-01-27 22:49:00,
2013-01-27 15:04:00,38.3,28.0,29.99,SW,222,5.0,28.0,67,0.00,,,0.00,weatherlink.com 1.10,2013-01-27 23:04:00,
2013-01-27 15:19:00,37.9,28.0,29.99,WSW,256,5.0,26.0,68,0.00,,,0.00,weatherlink.com 1.10,2013-01-27 23:19:00,
2013-01-27 15:34:00,38.1,28.0,29.99,West,277,15.0,27.0,67,0.00,,,0.00,weatherlink.com 1.10,2013-01-27 23:34:00,
2013-01-27 15:49:00,37.9,28.0,29.98,NW,307,14.0,31.0,68,0.00,,,0.00,weatherlink.com 1.10,2013-01-27 23:49:00,
2013-01-27 16:04:00,37.4,28.0,29.98,WNW,301,14.0,24.0,70,0.00,,,0.00,weatherlink.com 1.10,2013-01-28 00:04:00,
2013-01-27 16:19:00,37.2,29.0,29.98,NW,306,14.0,24.0,72,0.00,,,0.00,weatherlink.com 1.10,2013-01-28 00:19:00,
2013-01-27 16:34:00,37.1,29.0,29.98,NNW,328,7.0,32.0,72,0.00,,,0.00,weatherlink.com 1.10,2013-01-28 00:34:00,
2013-01-27 16:49:00,36.7,28.0,29.98,WNW,296,6.0,26.0,71,0.00,,,0.00,weatherlink.com 1.10,2013-01-28 00:49:00,
2013-01-27 17:04:00,36.2,28.0,29.98,WNW,288,9.0,32.0,73,0.00,,,0.00,weatherlink.com 1.10,2013-01-28 01:04:00,
2013-01-27 17:20:00,35.9,28.0,29.98,West,269,3.0,26.0,73,0.00,,,0.00,weatherlink.com 1.10,2013-01-28 01:20:00,
2013-01-27 17:35:00,35.6,28.0,29.99,NW,323,13.0,26.0,74,0.00,,,0.00,weatherlink.com 1.10,2013-01-28 01:35:00,
2013-01-27 17:50:00,35.6,28.0,29.99,WNW,291,11.0,31.0,73,0.00,,,0.00,weatherlink.com 1.10,2013-01-28 01:50:00,
2013-01-27 18:05:00,35.4,28.0,29.99,WNW,296,19.0,23.0,75,0.00,,,0.00,weatherlink.com 1.10,2013-01-28 02:05:00,
2013-01-27 18:20:00,35.1,28.0,29.99,WNW,301,9.0,25.0,75,0.00,,,0.00,weatherlink.com 1.10,2013-01-28 02:20:00,
2013-01-27 18:35:00,35.1,28.0,29.99,NNW,336,8.0,36.0,76,0.00,,,0.00,weatherlink.com 1.10,2013-01-28 02:35:00,
2013-01-27 18:50:00,35.2,28.0,30.00,NW,304,8.0,27.0,76,0.00,,,0.00,weatherlink.com 1.10,2013-01-28 02:50:00,
2013-01-27 19:05:00,35.2,29.0,30.00,West,281,1.0,28.0,77,0.00,,,0.00,weatherlink.com 1.10,2013-01-28 03:05:00,
2013-01-27 19:20:00,35.2,29.0,30.00,WNW,300,19.0,21.0,77,0.00,,,0.00,weatherlink.com 1.10,2013-01-28 03:20:00,
2013-01-27 19:35:00,35.6,27.0,30.01,NW,320,14.0,40.0,72,0.00,,,0.00,weatherlink.com 1.10,2013-01-28 03:35:00,
2013-01-27 19:50:00,35.8,27.0,30.01,NW,306,22.0,28.0,69,0.00,,,0.00,weatherlink.com 1.10,2013-01-28 03:50:00,
2013-01-27 20:05:00,36.0,27.0,30.00,WNW,300,14.0,38.0,70,0.00,,,0.00,weatherlink.com 1.10,2013-01-28 04:05:00,
2013-01-27 20:20:00,35.9,28.0,30.01,WNW,293,9.0,30.0,73,0.00,,,0.00,weatherlink.com 1.10,2013-01-28 04:20:00,
2013-01-27 20:35:00,35.8,28.0,30.01,WNW,301,11.0,30.0,73,0.00,,,0.00,weatherlink.com 1.10,2013-01-28 04:35:00,
2013-01-27 20:50:00,35.9,27.0,30.02,WNW,288,9.0,30.0,71,0.00,,,0.00,weatherlink.com 1.10,2013-01-28 04:50:00,
2013-01-27 21:05:00,35.9,28.0,30.02,NW,304,13.0,27.0,74,0.00,,,0.00,weatherlink.com 1.10,2013-01-28 05:05:00,
2013-01-27 21:20:00,35.9,28.0,30.02,NNW,347,12.0,33.0,73,0.00,,,0.00,weatherlink.com 1.10,2013-01-28 05:20:00,
2013-01-27 21:35:00,35.8,28.0,30.02,WNW,288,26.0,35.0,74,0.00,,,0.00,weatherlink.com 1.10,2013-01-28 05:35:00,
2013-01-27 21:50:00,35.6,27.0,30.03,NW,307,26.0,30.0,70,0.00,,,0.00,weatherlink.com 1.10,2013-01-28 05:50:00,
2013-01-27 22:05:00,35.4,26.0,30.03,WSW,252,9.0,29.0,69,0.00,,,0.00,weatherlink.com 1.10,2013-01-28 06:05:00,
2013-01-27 22:20:00,35.3,25.0,30.05,WNW,291,14.0,27.0,67,0.00,,,0.00,weatherlink.com 1.10,2013-01-28 06:20:00,
2013-01-27 22:35:00,35.4,26.0,30.05,NW,320,7.0,29.0,68,0.00,,,0.00,weatherlink.com 1.10,2013-01-28 06:35:00,
2013-01-27 22:50:00,35.1,25.0,30.05,WNW,299,14.0,21.0,68,0.00,,,0.00,weatherlink.com 1.10,2013-01-28 06:50:00,
2013-01-27 23:05:00,34.8,26.0,30.05,NW,304,16.0,21.0,70,0.00,,,0.00,weatherlink.com 1.10,2013-01-28 07:05:00,
2013-01-27 23:20:00,34.9,26.0,30.06,NW,304,9.0,26.0,69,0.00,,,0.00,weatherlink.com 1.10,2013-01-28 07:20:00,
2013-01-27 23:35:00,34.9,26.0,30.06,WNW,297,9.0,23.0,71,0.00,,,0.00,weatherlink.com 1.10,2013-01-28 07:35:00,
2013-01-27 23:50:00,35.0,26.0,30.06,WNW,294,12.0,27.0,69,0.00,,,0.00,weatherlink.com 1.10,2013-01-28 07:50:00,